Regional Weather Roundup
Issued by NWS

Home | Current Version | Previous Version | Text Only | Print | Product List | Glossary On
Versions: 1 2 3 4 5 6 7 8 9 10 11 12 13 14 15 16 17 18 19 20 21 22 23 24 25 26 27 28 29 30 31 32 33 34 35 36 37 38 39 40 41 42 43 44 45 46 47 48 49 50
000
ASUS43 KOAX 281502
RWRNE

WEATHER ROUNDUP FOR NEBRASKA
NATIONAL WEATHER SERVICE OMAHA NE
1000 AM CDT THU MAY 28 2015

NOTES: SATELLITE DATA IS BEING USED TO AUGMENT CLOUD COVER ABOVE
       12000 FEET.
       "FAIR" INDICATES FEW OR NO CLOUDS BELOW 12,000 FEET WITH NO
       SIGNIFICANT WEATHER AND/OR OBSTRUCTIONS TO VISIBILITY.

  * THESE STATIONS DO NOT REPORT WEATHER SUCH AS RAIN...SNOW OR FOG.

NEZ001>004-019>022-054>056-281600-
NEBRASKA PANHANDLE

CITY           SKY/WX    TMP DP  RH WIND       PRES   REMARKS
SCOTTSBLUFF    MOSUNNY   63  56  78 MISG      30.02R
ALLIANCE       MOSUNNY   63  55  75 SW10      30.00R
CHADRON        MOSUNNY   69  52  54 W9        29.95S
KIMBALL          N/A    N/A N/A N/A MISG        N/A
SIDNEY         PTSUNNY   63  57  81 NW10      30.01F
$$

NEZ057>060-069>072-079>082-281600-
SOUTHWEST NEBRASKA

CITY           SKY/WX    TMP DP  RH WIND       PRES   REMARKS
NORTH PLATTE   MOSUNNY   65  57  75 SE7       30.00R
IMPERIAL       PTSUNNY   63  56  78 S8        29.99S
LEXINGTON      CLOUDY    63  62  96 SE9       30.02F
MCCOOK         CLOUDY    61  57  87 MISG      30.02R
$$

NEZ005>010-023>029-035>040-094-281600-
NORTH CENTRAL NEBRASKA

CITY           SKY/WX    TMP DP  RH WIND       PRES   REMARKS
VALENTINE      MOSUNNY   68  56  65 S9        29.95S
AINSWORTH      MOSUNNY   70  59  68 S12       29.96S
BROKEN BOW     PTSUNNY   67  61  81 S9        30.00S
ORD            PTSUNNY   69  60  73 SE12      29.99F
$$

NEZ041-046>049-061>064-073>077-083>087-281600-
SOUTH CENTRAL NEBRASKA

CITY           SKY/WX    TMP DP  RH WIND       PRES   REMARKS
GRAND ISLAND   PTSUNNY   68  60  75 SE14      30.03F
AURORA         PTSUNNY   67  61  80 S9        30.01F
HASTINGS       PTSUNNY   67  61  81 SE10      30.03F
KEARNEY *      CLOUDY    68  57  68 SE8       30.02F
$$

NEZ011>018-030>034-042>045-281600-
NORTHEAST NEBRASKA

CITY           SKY/WX    TMP DP  RH WIND       PRES   REMARKS
NORFOLK        PTSUNNY   72  60  66 S14G20    30.01F
BLAIR          CLOUDY    68  58  70 S13       30.04F
COLUMBUS *     CLOUDY    66  61  82 S7        30.03F
FREMONT        CLOUDY    68  60  74 S9        30.04F
TEKAMAH        CLOUDY    71  59  65 S14       30.03F
$$

NEZ050>053-065>068-078-088>093-281600-
SOUTHEAST NEBRASKA

CITY           SKY/WX    TMP DP  RH WIND       PRES   REMARKS
LINCOLN        LGT RAIN  65  62  90 S9        30.03F
OMAHA EPPLEY   CLOUDY    68  58  70 S13       30.03F
FALLS CITY     LGT RAIN  66  62  87 E10       30.03
NEBRASKA CITY  CLOUDY    64  62  94 SE6       30.04F
PLATTSMOUTH    CLOUDY    65  59  81 SE7       30.04F
$$

NEZ044-045-051>053-067-281600-
OMAHA AREA

CITY           SKY/WX    TMP DP  RH WIND       PRES   REMARKS
OMAHA EPPLEY   CLOUDY    68  58  70 S13       30.03F
BLAIR          CLOUDY    68  58  70 S13       30.04F
FREMONT        CLOUDY    68  60  74 S9        30.04F
OFFUTT AFB     CLOUDY    66  59  78 SE9       30.04F
PLATTSMOUTH    CLOUDY    65  59  81 SE7       30.04F
WAHOO          FAIR      66  61  84 S9        30.02F
$$



USA.gov is the U.S. government's official web portal to all federal, state and local government web resources and services.